Weather History for KPNA - February, 2013

Change the Weather History Date:

Sunday, February 10, 2013

  Actual Average (KBPI) Record (KBPI)
Temperature  
Mean Temperature 14 °F 13 °F  
Max Temperature 23 °F 27 °F 43 °F (2000)
Min Temperature 5 °F 0 °F -29 °F (1989)
Degree Days  
Heating Degree Days 51 52  
Month to date heating degree days 530  
Since 1 July heating degree days 6643  
Cooling Degree Days 0 0  
Month to date cooling degree days 0  
Year to date cooling degree days 0  
Moisture  
Dew Point 11 °F    
Average Humidity 86    
Maximum Humidity 100    
Minimum Humidity 63    
Precipitation  
Precipitation 0.00 in 0.01 in 0.08 in (1993)
Month to date precipitation 0.11  
Year to date precipitation 0.42  
Sea Level Pressure  
Sea Level Pressure 29.82 in    
Wind  
Wind Speed 4 mph (WNW)    
Max Wind Speed 10 mph    
Max Gust Speed -    
Visibility 8 miles    
Events Snow    
T = Trace of Precipitation, MM = Missing Value Source: NWS Daily Summary

Daily Weather History Graph

Daily Weather History Graph

Search for Another Location

Airport or City:

Trip Planner

Search our weather history database for the weather conditions in past years. The results will help you decide how hot, cold, wet, or windy it might be!

Date:

Astronomy

Feb. 10, 2013 Rise Set
Actual Time 7:22 AM MST 5:44 PM MST
Civil Twilight 6:53 AM MST 6:14 PM MST
Nautical Twilight 6:20 AM MST 6:47 PM MST
Astronomical Twilight 5:47 AM MST 7:20 PM MST
Moon 7:12 AM MST (2/10) 6:41 PM MST (2/10)
Length of Visible Light 11h 20m
Length of Day
10h 22m
New Moon, 0% of the Moon is Illuminated
Feb 10
New Moon
Feb 17
First Quarter
Feb 25
Full
Mar 4
Last Quarter
Mar 11
New

Hourly Weather History & Observations

Time (MST) Temp. Windchill Dew Point Humidity Pressure Visibility Wind Dir Wind Speed Gust Speed Precip Events Conditions
12:15 AM 10.4 °F 0.8 °F 10.4 °F 100% 29.69 in 10.0 mi NNW 5.8 mph - N/A   Overcast
12:35 AM 10.4 °F 2.2 °F 8.6 °F 92% 29.70 in 10.0 mi West 4.6 mph - N/A   Overcast
12:55 AM 10.4 °F 4.0 °F 8.6 °F 92% 29.71 in 10.0 mi West 3.5 mph - N/A   Overcast
1:15 AM 10.4 °F 4.0 °F 8.6 °F 92% 29.71 in 5.0 mi West 3.5 mph - N/A   Overcast
1:35 AM 10.4 °F - 10.4 °F 100% 29.71 in 4.0 mi Calm Calm - N/A Snow Light Snow
1:55 AM 10.4 °F 4.0 °F 10.4 °F 100% 29.71 in 3.0 mi WNW 3.5 mph - N/A Snow Light Snow
2:15 AM 10.4 °F - 8.6 °F 92% 29.72 in 7.0 mi Calm Calm - N/A   Overcast
2:35 AM 10.4 °F - 8.6 °F 92% 29.72 in 7.0 mi Calm Calm - N/A   Overcast
2:55 AM 8.6 °F 2.0 °F 6.8 °F 92% 29.72 in 10.0 mi West 3.5 mph - N/A   Overcast
3:15 AM 10.4 °F 4.0 °F 8.6 °F 92% 29.72 in 2.5 mi West 3.5 mph - N/A Snow Light Snow
3:35 AM 10.4 °F 2.2 °F 8.6 °F 92% 29.72 in 2.0 mi NW 4.6 mph - N/A Snow Light Snow
3:55 AM 8.6 °F 2.0 °F 6.8 °F 92% 29.72 in 5.0 mi NNW 3.5 mph - N/A   Overcast
4:15 AM 8.6 °F 2.0 °F 5.0 °F 85% 29.73 in 7.0 mi WNW 3.5 mph - N/A   Overcast
4:35 AM 6.8 °F -3.5 °F 5.0 °F 92% 29.73 in 10.0 mi West 5.8 mph - N/A   Overcast
4:55 AM 5.0 °F -5.6 °F 3.2 °F 92% 29.74 in 10.0 mi West 5.8 mph - N/A   Overcast
5:15 AM 6.8 °F -3.5 °F 5.0 °F 92% 29.75 in 10.0 mi West 5.8 mph - N/A   Overcast
5:35 AM 6.8 °F -2.0 °F 5.0 °F 92% 29.75 in 10.0 mi WNW 4.6 mph - N/A   Overcast
5:55 AM 8.6 °F 2.0 °F 6.8 °F 92% 29.75 in 10.0 mi West 3.5 mph - N/A   Overcast
6:15 AM 8.6 °F 0.1 °F 8.6 °F 100% 29.75 in 10.0 mi WNW 4.6 mph - N/A   Overcast
6:35 AM 10.4 °F 4.0 °F 8.6 °F 92% 29.76 in 10.0 mi WNW 3.5 mph - N/A   Overcast
6:55 AM 10.4 °F - 10.4 °F 100% 29.77 in 10.0 mi Calm Calm - N/A   Overcast
7:15 AM 12.2 °F - 10.4 °F 92% 29.77 in 10.0 mi Calm Calm - N/A   Overcast
7:35 AM 12.2 °F - 12.2 °F 100% 29.78 in 10.0 mi Calm Calm - N/A   Overcast
7:55 AM 14.0 °F - 12.2 °F 93% 29.79 in 10.0 mi Calm Calm - N/A   Overcast
8:15 AM 14.0 °F - 12.2 °F 93% 29.79 in 7.0 mi Calm Calm - N/A   Overcast
8:35 AM 14.0 °F - 12.2 °F 93% 29.79 in 10.0 mi Calm Calm - N/A   Overcast
8:55 AM 12.2 °F 4.3 °F 10.4 °F 92% 29.79 in 10.0 mi NW 4.6 mph - N/A   Mostly Cloudy
9:15 AM 10.4 °F 0.8 °F 8.6 °F 92% 29.80 in 10.0 mi North 5.8 mph - N/A   Scattered Clouds
9:35 AM 14.0 °F 5.1 °F 12.2 °F 93% 29.80 in 10.0 mi NW 5.8 mph - N/A   Scattered Clouds
9:55 AM 17.6 °F 10.7 °F 14.0 °F 86% 29.80 in 10.0 mi NW 4.6 mph - N/A   Mostly Cloudy
10:15 AM 19.4 °F 11.5 °F 15.8 °F 86% 29.81 in 10.0 mi NW 5.8 mph - N/A   Overcast
10:35 AM 19.4 °F 9.5 °F 17.6 °F 93% 29.81 in 10.0 mi NW 8.1 mph - N/A   Overcast
10:55 AM 21.2 °F 12.6 °F 17.6 °F 86% 29.82 in 10.0 mi NW 6.9 mph - N/A   Overcast
11:15 AM 23.0 °F 15.8 °F 15.8 °F 74% 29.82 in 10.0 mi WNW 5.8 mph - N/A   Overcast
11:35 AM 23.0 °F 14.7 °F 17.6 °F 80% 29.82 in 10.0 mi WNW 6.9 mph - N/A   Overcast
11:55 AM 23.0 °F 13.9 °F 14.0 °F 68% 29.82 in 10.0 mi NW 8.1 mph - N/A   Overcast
12:15 PM 23.0 °F 12.4 °F 14.0 °F 68% 29.81 in 10.0 mi NW 10.4 mph - N/A   Overcast
12:35 PM 23.0 °F 13.1 °F 14.0 °F 68% 29.81 in 10.0 mi NW 9.2 mph - N/A   Overcast
12:55 PM 23.0 °F 13.9 °F 12.2 °F 63% 29.81 in 10.0 mi NW 8.1 mph - N/A   Overcast
1:15 PM 23.0 °F 15.8 °F 12.2 °F 63% 29.82 in 10.0 mi NNW 5.8 mph - N/A   Overcast
1:35 PM 21.2 °F 10.1 °F 14.0 °F 74% 29.82 in 7.0 mi NW 10.4 mph - N/A   Overcast
1:55 PM 21.2 °F 11.7 °F 14.0 °F 74% 29.82 in 10.0 mi WNW 8.1 mph - N/A   Overcast
2:15 PM 21.2 °F 11.7 °F 12.2 °F 68% 29.82 in 10.0 mi West 8.1 mph - N/A   Overcast
2:35 PM 23.0 °F 17.0 °F 12.2 °F 63% 29.83 in 10.0 mi WSW 4.6 mph - N/A   Overcast
2:55 PM 23.0 °F 15.8 °F 12.2 °F 63% 29.83 in 7.0 mi West 5.8 mph - N/A   Overcast
3:15 PM 21.2 °F 13.6 °F 12.2 °F 68% 29.84 in 5.0 mi WSW 5.8 mph - N/A   Haze
3:35 PM 21.2 °F 14.9 °F 14.0 °F 74% 29.85 in 1.8 mi West 4.6 mph - N/A Snow Light Snow
3:55 PM 23.0 °F 15.8 °F 14.0 °F 68% 29.85 in 5.0 mi WSW 5.8 mph - N/A   Haze
4:15 PM 23.0 °F 13.1 °F 15.8 °F 74% 29.85 in 10.0 mi SW 9.2 mph - N/A   Overcast
4:35 PM 21.2 °F 10.1 °F 14.0 °F 74% 29.85 in 10.0 mi SW 10.4 mph - N/A   Overcast
4:55 PM 21.2 °F 12.6 °F 14.0 °F 74% 29.85 in 10.0 mi SW 6.9 mph - N/A   Overcast
5:15 PM 19.4 °F 11.5 °F 14.0 °F 80% 29.87 in 10.0 mi West 5.8 mph - N/A   Overcast
5:35 PM 19.4 °F 10.4 °F 14.0 °F 80% 29.87 in 10.0 mi WSW 6.9 mph - N/A   Overcast
5:55 PM 19.4 °F 12.8 °F 12.2 °F 74% 29.87 in 10.0 mi SW 4.6 mph - N/A   Overcast
6:15 PM 17.6 °F 12.3 °F 12.2 °F 79% 29.87 in 10.0 mi SW 3.5 mph - N/A   Overcast
6:35 PM 17.6 °F 10.7 °F 12.2 °F 79% 29.88 in 10.0 mi SW 4.6 mph - N/A   Mostly Cloudy
6:55 PM 15.8 °F 7.2 °F 10.4 °F 79% 29.89 in 10.0 mi West 5.8 mph - N/A   Overcast
7:15 PM 15.8 °F 8.6 °F 12.2 °F 86% 29.90 in 10.0 mi NNW 4.6 mph - N/A   Overcast
7:35 PM 14.0 °F - 14.0 °F 100% 29.90 in 10.0 mi Calm Calm - N/A   Overcast
7:55 PM 15.8 °F 10.2 °F 14.0 °F 93% 29.91 in 10.0 mi South 3.5 mph - N/A   Overcast
8:15 PM 15.8 °F - 14.0 °F 93% 29.92 in 7.0 mi Calm Calm - N/A Snow Light Snow
8:35 PM 14.0 °F 8.2 °F 12.2 °F 93% 29.92 in 5.0 mi SSE 3.5 mph - N/A Snow Light Snow
8:55 PM 12.2 °F 1.7 °F 10.4 °F 92% 29.93 in 7.0 mi East 6.9 mph - N/A Snow Light Snow
9:15 PM 12.2 °F 0.7 °F 10.4 °F 92% 29.93 in 7.0 mi SE 8.1 mph - N/A Snow Light Snow
9:35 PM 12.2 °F 4.3 °F 10.4 °F 92% 29.94 in 10.0 mi South 4.6 mph - N/A Snow Light Snow
9:55 PM 12.2 °F - 10.4 °F 92% 29.95 in 7.0 mi Calm Calm - N/A   Overcast
10:15 PM 10.4 °F 2.2 °F 8.6 °F 92% 29.95 in 5.0 mi West 4.6 mph - N/A Snow Light Snow
10:35 PM 10.4 °F 2.2 °F 8.6 °F 92% 29.95 in 5.0 mi West 4.6 mph - N/A Snow Light Snow
10:55 PM 8.6 °F -2.6 °F 8.6 °F 100% 29.96 in 10.0 mi WNW 6.9 mph - N/A Snow Light Snow
11:15 PM 10.4 °F -0.4 °F 8.6 °F 92% 29.97 in 7.0 mi WNW 6.9 mph - N/A Snow Light Snow
11:35 PM 10.4 °F -0.4 °F 8.6 °F 92% 29.97 in 10.0 mi NW 6.9 mph - N/A Snow Light Snow
11:55 PM 10.4 °F 0.8 °F 8.6 °F 92% 29.97 in 5.0 mi WNW 5.8 mph - N/A Snow Light Snow